Aérodrome :
LOGIN :

S'inscrire | Disclaimer

   EN    FR    IT 

 










Légende :    VFR   VFR Marginal   IFR   IFR Intensif   IFR Très Intensif
Visi : 
Plafond : 
>= 8 km
>= 3000ft
5 à 8 km
1000 à 3000 ft
1500m à 5 km
500 à 1000 ft
800 à 1500m
200 à 500 ft
< 800m
< 200 ft
Symboles :   Orages  Brouillard  Fortes neiges  Fortes précipitations  Vent > 20 kt
SIGMETs :   Divers  Orages  Givrage  Turbulence  Onde Orograph.  Cendres Volcan.







- Altitude de l'aérodrome : 2096 ft
- Code IATA : AUR
- Voir les cartes d'approche


LFLW - Aurillac

DERNIER METAR :
  • 231330Z AUTO 32003KT 240V020 CAVOK 26/12 Q1018 NOSIG

METARs EXPIRÉS :
  • 231300Z AUTO VRB03KT CAVOK 26/12 Q1018 NOSIG
  • 231230Z AUTO VRB02KT CAVOK 26/14 Q1018 NOSIG
  • 231200Z AUTO 28004KT 210V010 9999 BKN056 25/13 Q1018 NOSIG
  • 231130Z AUTO 14004KT 040V210 9999 SCT054 24/14 Q1019 NOSIG
  • 231100Z AUTO VRB02KT 9999 SCT050 BKN064 24/13 Q1019 NOSIG

TAF TAF LFLW
Valide du 23 à 12h jusqu'au 23 à 21h UTC


231100Z 2312/2321 VRB03KT CAVOK
TEMPO 2312/2318 32006KT SCT050
Pas de NOTAMs connus pour ce terrain.



MET'MAP, la Météo Aéronautique d'un coup d'oeil ! - Copyright ORBIFLY Décembre 2007 - Disclaimer

ORBIFLY MET'MAP TEAM :

Programmation & Développement : Alexandra Zaïnal
Conception & Développement : Baudouin d'Aumeries
Co-Programmation & Développement : Marc-Olivier Méhu
Soutien technique & logistique : Manuel Goepfert

Contact : metmap@orbifly.com




SOURCES & CREDITS :

   NOAA